Regional Weather Roundup
Issued by NWS

Home | Current Version | Previous Version | Text Only | Print | Product List | Glossary On
Versions: 1 2 3 4 5 6 7 8 9 10 11 12 13 14 15 16 17 18 19 20 21 22 23 24 25 26 27 28 29 30 31 32 33 34 35 36 37 38 39 40 41 42 43 44 45 46 47 48 49 50
000
ASUS43 KMPX 280510
RWRMN
WEATHER ROUNDUP FOR MINNESOTA
NATIONAL WEATHER SERVICE TWIN CITIES/CHANHASSEN MN
1200 AM CDT WED SEP 28 2016


NOTE: "FAIR" INDICATES FEW OR NO CLOUDS BELOW 12,000 FEET WITH NO
SIGNIFICANT WEATHER AND/OR OBSTRUCTIONS TO VISIBILITY. N/A MEANS
CURRENT SKY AND/OR WEATHER CONDITIONS ARE NOT AVAILABLE.

MNZ060>063-068>070-280600-
   Twin Cities Metro

CITY           SKY/WX    TMP DP  RH WIND       PRES   REMARKS
TWIN CITIES    CLOUDY    50  45  83 N13       29.90R
ST PAUL        CLOUDY    50  45  83 NW9       29.91R
CRYSTAL        CLOUDY    49  44  83 N9        29.90R
BLAINE         CLOUDY    52  48  87 NW8       29.90R
LAKEVILLE      CLOUDY    48  46  93 N7        29.90R
EDEN PRAIRIE   CLOUDY    50  45  83 NW9       29.90R
LAKEVILLE      CLOUDY    48  46  93 N7        29.90R
SOUTH ST PAUL  CLOUDY    50  45  81 N8        29.89S
LAKE ELMO      CLOUDY    48  46  93 N6        29.90R
$$
MNZ001>005-007-008-013>017-022>024-027-028-280600-
   Northwest Minnesota

CITY           SKY/WX    TMP DP  RH WIND       PRES   REMARKS
BEMIDJI        CLEAR     39  39 100 CALM      30.00R
HALLOCK        CLOUDY    46  45  93 CALM      30.06R
ROSEAU         CLOUDY    45  39  81 N6        30.04R
WARROAD        CLOUDY    45  41  87 NW6       30.04R
THIEF RVR FALL   N/A     48  41  76 N10       30.04R
CROOKSTON      CLOUDY    48  43  81 NE3       30.05R
FOSSTON        CLOUDY    37  37 100 NW6       30.02R
DETROIT LAKES  CLOUDY    45  43  93 N3        30.02R
MOORHEAD       CLOUDY    46  43  87 NE6       30.03R
PARK RAPIDS    PTCLDY    46  42  86 N6        29.98R
MAHNOMEN       CLOUDY    45  41  87 N5        30.01R
$$
MNZ006-009>011-018-025>026-280600-
   North Central Minnesota

CITY           SKY/WX    TMP DP  RH WIND       PRES   REMARKS
BAUDETTE       CLOUDY    49  46  90 N8        30.02R
FLAG ISLAND    MOCLDY    50  46  87 N12       30.03R
INTL FALLS     CLOUDY    51  47  86 N7        29.98R
WASKISH        CLOUDY    46  45  93 N7        30.01R
BIG FORK       CLOUDY    48  46  93 CALM      29.97R
LONGVILLE      CLOUDY    48  46  93 VRB6      29.96R
GRAND RAPIDS   CLOUDY    48  47  96 N10       29.97R
CRANE LAKE     CLOUDY    50  48  93 N8        29.97R
ORR            CLOUDY    48  45  87 CALM      29.93R
COOK           MOCLDY    48  46  93 N5        29.95R
WALKER         CLOUDY    41  41  99 CALM      29.99R
$$
MNZ012-019>021-037-280600-
   Northeast Minnesota

CITY           SKY/WX    TMP DP  RH WIND       PRES   REMARKS
DULUTH         CLOUDY    51  48  89 N12G21    29.88R
ELY            CLOUDY    48  48 100 N5        29.92R
HIBBING        CLOUDY    49  46  90 N13G21    29.93R
EVELETH        CLOUDY    53  49  86 N9        29.93R
DULUTH HARBOR  CLOUDY    54  50  87 N17       29.88R
TWO HARBORS    PTCLDY    54  48  82 N7        29.85R
SILVER BAY     CLOUDY    54  48  82 N6        29.85R
GRAND MARAIS     N/A     56  48  74 VRB7G22   29.84R
G MARAIS ARPRT CLOUDY    48  45  87 N12       29.87R
$$
MNZ029>031-032-039>041-046>048-054>057-064-280600-
   West Central Minnesota

CITY           SKY/WX    TMP DP  RH WIND       PRES   REMARKS
FERGUS FALLS   MOCLDY    46  41  81 NE3       30.02R
MORRIS         CLOUDY    52  45  76 NE12      29.98R
ALEXANDRIA     MOCLDY    47  43  86 N13       29.99R
ELBOW LAKE     CLOUDY    48  43  82 E7        30.00R
WADENA         MOCLDY    43  39  87 NW5       29.98R
GLENWOOD       CLEAR     45  43  93 N7        29.98R
BENSON         MOCLDY    48  43  81 NE6       29.98R
ORTONVILLE     CLOUDY    52  43  71 CALM      29.98R
MADISON        CLOUDY    55  46  71 N7        29.98R
WILLMAR        FAIR      48  45  87 N14       29.97R
$$
MNZ033>034-036-042>043-049>051-058-059-280600-
   Central Minnesota

CITY           SKY/WX    TMP DP  RH WIND       PRES   REMARKS
ST CLOUD       MOCLDY    46  45  96 NW8       29.93R
SAUK CENTRE    FAIR      44  42  90 N7        29.96S
PAYNESVILLE    PTCLDY    45  45 100 N6        29.96R
AITKIN         CLOUDY    48  43  81 N7        29.93R
PINE RIVER     MOCLDY    48  45  87 N10       29.99R
BRAINERD       CLOUDY    48  45  89 N12       29.95R
STAPLES        MOCLDY    43  43 100 N6        29.97R
LONG PRAIRIE   FAIR      43  41  93 NW6       29.96S
LITTLE FALLS   PTCLDY    43  39  87 CALM      29.95R
LITCHFIELD     MOCLDY    48  45  87 N9        29.95R
BUFFALO        MOCLDY    47  43  85 NW6       29.94R
MAPLE LAKE     CLEAR     47  45  93 NW7       29.94R
HUTCHINSON     CLOUDY    47  45  90 NW8       29.95R
$$
MNZ037-044-045-052-053-280600-
   East Central Minnesota

CITY           SKY/WX    TMP DP  RH WIND       PRES   REMARKS
PRINCETON        N/A     46  45  93 NW3       29.93R
MORA           CLOUDY    46  43  87 N7        29.93R
CAMBRIDGE      CLOUDY    52  43  71 NW9       29.89S
MOOSE LAKE     CLOUDY    50  45  81 N7        29.89R
HINCKLEY       CLOUDY    48  46  93 N7        29.90R
CLOQUET        CLOUDY    50  46  87 N8G20     29.89R
MCGREGOR       CLOUDY    48  45  87 N9        29.93R
$$
MNZ071>073-080-081-089-090-097-098-280600-
   Southwest Minnesota

CITY           SKY/WX    TMP DP  RH WIND       PRES   REMARKS
MONTEVIDEO     CLOUDY    52  45  76 NE10      29.99R
GRANITE FALLS  CLOUDY    54  46  72 N13G18    29.98R
CANBY          CLOUDY    49  43  80 W6        29.99R
MARSHALL       CLOUDY    53  44  71 NE7       29.96R
REDWOOD FALLS  MOCLDY    51  43  74 N10G18    29.95R
OLIVIA         MOCLDY    50  43  76 N6        29.95R
PIPESTONE      CLEAR     50  37  62 NE5       29.95R
WINDOM         CLOUDY    52  43  71 N14       29.94R
WORTHINGTON    CLEAR     48  42  80 N5        29.94R
JACKSON        MOCLDY    52  41  66 N9G17     29.94R
TRACY          CLOUDY    53  45  73 N8        29.96R
SLAYTON        PTCLDY    48  41  76 N5        29.96R
$$
MNZ065>067-074>077-082>085-091>093-280600-
   South Central Minnesota

CITY           SKY/WX    TMP DP  RH WIND       PRES   REMARKS
MANKATO        CLOUDY    49  44  83 N13       29.92R
NEW ULM        MOCLDY    48  43  81 N6        29.93R
ST JAMES       CLOUDY    52  45  76 N8        29.94R
FAIRMONT       CLOUDY    51  43  74 N17       29.92R
GLENCOE        MOCLDY    48  46  94 NW5       29.93R
FARIBAULT      CLOUDY    50  45  81 CALM      29.90S
OWATONNA       MOCLDY    48  45  87 N8        29.89S
WASECA         CLOUDY    50  45  81 N9        29.91R
ALBERT LEA     PTCLDY    48  45  87 N7        29.89R
$$
MNZ078>079-086>088-094>096-280600-
   Southeast Minnesota

CITY           SKY/WX    TMP DP  RH WIND       PRES   REMARKS
ROCHESTER      CLOUDY    48  45  89 N12       29.87R
RED WING       CLOUDY    50  46  87 N3        29.87R
DODGE CENTER   CLOUDY    48  45  87 N12       29.87S
WINONA         CLOUDY    48  45  87 NW7       29.85R
AUSTIN         MOCLDY    46  45  93 N9        29.87R
PRESTON        CLOUDY    47  43  87 N12G17    29.86R
$$
ABBREVIATIONS USED IN REMARKS
   TC - TEMPERATURES IN CELSIUS
  WCI - WIND CHILL INDEX
   HX - HEAT INDEX
  VSB - VISIBILITY
$$




USA.gov is the U.S. government's official web portal to all federal, state and local government web resources and services.